Home > Weather > Bucaramanga > Past weeks

Flag for Colombia Weather for the Past 2 Weeks in Bucaramanga, Colombia

Now
73 °F

Passing clouds.


Feels Like: 74 °F
Forecast: 68 / 86 °F
Wind: 2 mph from North

Location: Bucaramanga / Palonegro

Current Time: Feb 11, 2016 at 10:56:22 PM

Latest Report: Feb 11, 2016 at 10:00 PM


Visibility: N/A

Pressure: 30.00 "Hg (26.87 "Hg at 956m altitude)

Humidity: 78%

Dew point: 66 °F

Location of BucaramangaLocation

Historic Weather in Bucaramanga — Graph

°F

Bucaramanga Temperature Yesterday

Maximum temperature yesterday: 84 °F (at 3:00 PM)
Minimum temperature yesterday: 70 °F (at 5:00 AM)
Average temperature yesterday: 75 °F

High & Low Weather Summary for the Past Weeks

 TemperatureHumidityPressure
High84 °F (Feb 2, 2:00 PM)100% (Jan 29, 6:00 AM)30.08 "Hg (Jan 29, 6:00 AM)
Low66 °F (Feb 5, 6:00 AM)51% (Feb 2, 2:00 PM)29.89 "Hg (Feb 2, 3:00 PM)
Average75 °F76%29.99 "Hg
* Reported Jan 27 9:00 PM — Feb 11 9:00 PM, Bucaramanga, Weather by CustomWeather, © 2016

Note: Actual official high and low records may vary slightly from our data, if they occured in-between our weather recording intervals... More about our weather records

Advertising

Bucaramanga Weather History for the Previous 24 Hours

 ConditionsComfort  
Time TempWeatherWind HumidityBarometerVisibility
9:00 PM
Thu, Feb 11
75 °FPassing clouds.2 mph74%29.99 "HgN/A
8:00 PM73 °FPassing clouds.3 mph83%29.98 "HgN/A
7:00 PM75 °FPassing clouds.2 mph74%29.97 "HgN/A
6:00 PM77 °FScattered clouds.3 mph69%29.95 "HgN/A
4:00 PM81 °FScattered clouds.9 mph62%29.92 "HgN/A
3:00 PM81 °FScattered clouds.9 mph62%29.92 "HgN/A
2:00 PM82 °FPassing clouds.9 mph62%29.94 "Hg5 mi
1:00 PM84 °FPassing clouds.12 mph58%29.97 "Hg5 mi
12:00 PM79 °FScattered clouds.7 mph70%30.00 "Hg5 mi
11:00 AM79 °FScattered clouds.9 mph70%30.03 "Hg5 mi
10:00 AM73 °FBroken clouds.7 mph83%30.06 "Hg2 mi
9:00 AM72 °FBroken clouds.3 mph78%30.06 "Hg2 mi
8:00 AM72 °FBroken clouds.3 mph88%30.04 "Hg2 mi
7:00 AM70 °FBroken clouds.3 mph94%30.02 "Hg1 mi
6:00 AM68 °FPartly cloudy.5 mph94%30.01 "Hg1 mi
11:00 PM
Wed, Feb 10
72 °FPassing clouds.No wind94%30.03 "Hg5 mi
10:00 PM72 °FPassing clouds.2 mph94%30.03 "Hg5 mi
Weather by CustomWeather, © 2016

See weather overviewHow to use our weather pages